This demonstration page uses our WeatherBlox Daily Observations layout. Learn more.

Left ArrowRight Arrow

39.92423, -83.80882

Hourly Observations for June 27, 2015

Temp ( °F °C ) Dew Point ( °F °C ) Humidity (%) Winds ( mph kmh ) Pressure ( in mb ) Visibility ( mi km ) Precip ( " mm )
12:22 am 00:22 Cloudy with Light Rain 66 19 66 19 100 100 SE 12 19 29.85 1011 4 6.43736 0.05 1.27
12:56 am 00:56 Mostly Cloudy with Light Rain 66 18.8 66 18.8 100 100 SE 7 11 29.84 1011 6 9.65604 0.08 2.032
1:56 am 01:56 Cloudy 66 18.8 66 18.8 100 100 SSE 8 13 29.82 1010 8 12.87472 0.02 0.508
2:20 am 02:20 Cloudy 66 19 66 19 100 100 SSE 5 7 29.8 1009 7 11.26538 0.01 0.254
2:39 am 02:39 Cloudy with Mist and Fog 66 19 66 19 100 100 S 6 9 29.8 1009 2.5 4.02335 0.03 0.762
2:48 am 02:48 Mostly Cloudy with Light Rain 66 19 66 19 100 100 SSE 7 11 29.77 1008 1.75 2.816345 0.07 1.778
2:56 am 02:56 Mostly Cloudy with Light Rain 66 18.8 66 18.8 100 100 SE 7 11 29.79 1009 8 12.87472 0.07 1.778
3:10 am 03:10 Mostly Cloudy with Rain 66 19 66 19 100 100 SE 10 17 29.77 1008 1.75 2.816345 0.06 1.524
3:23 am 03:23 Cloudy with Light Rain 66 19 66 19 100 100 SSE 8 13 29.77 1008 3 4.82802 0.08 2.032
3:56 am 03:56 Cloudy with Mist and Fog 66 18.8 66 18.8 100 100 SSE 8 13 29.75 1008 5 8.0467 0.09 2.286
4:08 am 04:08 Cloudy with Mist and Fog 66 19 66 19 100 100 SSE 7 11 29.74 1007 5 8.0467 0 0.0254
4:16 am 04:16 Cloudy with Mist and Fog 66 19 66 19 100 100 SE 8 13 29.74 1007 5 8.0467 0.01 0.254
4:24 am 04:24 Cloudy with Mist and Fog 66 19 66 19 100 100 SSE 6 9 29.74 1007 6 9.65604 0.01 0.254
4:36 am 04:36 Cloudy with Mist and Fog 66 19 66 19 100 100 SSE 6 9 29.74 1007 2.5 4.02335 0.03 0.762
4:43 am 04:43 Cloudy with Mist and Fog 66 19 66 19 100 100 SE 8 13 29.74 1007 5 8.0467 0.03 0.762
4:56 am 04:56 Cloudy with Mist and Fog 66 18.8 66 18.8 100 100 S 5 7 29.73 1007 3 4.82802 0.04 1.016
5:56 am 05:56 Cloudy 67 19.4 67 19.4 100 100 S 7 11 29.72 1006 8 12.87472 0 0
6:38 am 06:38 Cloudy with Mist and Fog 68 20 68 20 100 100 SSW 9 15 29.71 1006 6 9.65604 0 0
6:56 am 06:56 Cloudy with Mist and Fog 68 20 68 20 100 100 SSW 9 15 29.71 1006 5 8.0467 0 0
7:18 am 07:18 Cloudy with Mist and Fog 68 20 68 20 100 100 SSW 8 13 29.71 1006 5 8.0467 0 0
7:56 am 07:56 Cloudy with Mist and Fog 69 20.5 69 20.5 100 100 SSW 12 19 29.7 1006 5 8.0467 0 0
8:13 am 08:13 Cloudy with Mist and Fog 70 21 70 21 100 100 SSW 9 15 29.68 1005 5 8.0467 0 0
8:46 am 08:46 Cloudy with Mist and Fog 68 20 68 20 100 100 WSW 12 19 29.68 1005 5 8.0467 0 0
8:56 am 08:56 Cloudy with Mist and Fog 67 19.4 67 19.4 100 100 WSW 16 26 29.69 1006 6 9.65604 0 0
9:11 am 09:11 Cloudy 68 20 66 19 94 94 WSW 15 24 29.68 1005 8 12.87472 0 0
9:30 am 09:30 Cloudy 66 19 64 18 94 94 WSW 12 19 29.68 1005 8 12.87472 0 0
9:38 am 09:38 Cloudy 66 19 64 18 94 94 WSW 14 22 29.68 1005 8 12.87472 0 0
9:46 am 09:46 Cloudy 66 19 64 18 94 94 WSW 16 26 29.68 1005 8 12.87472 0 0
9:56 am 09:56 Cloudy 67 19.4 64 17.7 90 90 WSW 17 28 29.69 1006 8 12.87472 0 0
10:16 am 10:16 Mostly Cloudy 66 19 64 18 94 94 WSW 20 31 29.68 1005 9 14.48406 0 0
10:25 am 10:25 Mostly Cloudy 66 19 63 17 88 88 WSW 18 30 29.68 1005 7 11.26538 0 0
10:45 am 10:45 Cloudy 64 18 63 17 94 94 W 21 33 29.71 1006 7 11.26538 0 0
10:56 am 10:56 Cloudy with Mist and Fog 64 17.7 61 16.1 90 90 WSW 22 35 29.71 1006 6 9.65604 0 0
11:09 am 11:09 Cloudy with Mist and Fog 64 18 61 16 88 88 W 20 31 29.71 1006 6 9.65604 0 0
11:33 am 11:33 Cloudy with Mist and Fog 63 17 61 16 94 94 WSW 15 24 29.71 1006 2.5 4.02335 0 0
11:56 am 11:56 Cloudy with Mist and Fog 62 16.6 61 16.1 97 97 WSW 18 30 29.72 1007 3 4.82802 0 0
12:25 pm 12:25 Cloudy with Mist and Fog 63 17 61 16 94 94 WSW 15 24 29.71 1006 6 9.65604 0 0
12:32 pm 12:32 Cloudy 63 17 61 16 94 94 W 14 22 29.71 1006 7 11.26538 0 0
12:56 pm 12:56 Cloudy with Mist and Fog 62 16.6 60 15.5 93 93 W 18 30 29.74 1007 4 6.43736 0 0
1:09 pm 13:09 Cloudy with Mist and Fog 63 17 61 16 94 94 W 16 26 29.71 1006 3 4.82802 0 0
1:56 pm 13:56 Cloudy with Mist and Fog 62 16.6 59 15 90 90 W 15 24 29.74 1007 5 8.0467 0 0
2:56 pm 14:56 Cloudy with Mist and Fog 62 16.6 60 15.5 93 93 WSW 18 30 29.74 1007 6 9.65604 0 0.0254
3:56 pm 15:56 Cloudy with Mist and Fog 62 16.6 61 16.1 97 97 W 22 35 29.74 1007 4 6.43736 0 0
4:03 pm 16:03 Cloudy with Mist and Fog 63 17 61 16 94 94 W 20 31 29.74 1007 3 4.82802 0 0
4:12 pm 16:12 Cloudy with Mist and Fog 63 17 61 16 94 94 W 20 31 29.74 1007 2.5 4.02335 0 0
4:27 pm 16:27 Cloudy with Mist and Fog 63 17 61 16 94 94 W 20 31 29.74 1007 2.5 4.02335 0 0.0254
4:56 pm 16:56 Cloudy with Mist and Fog 61 16.1 60 15.5 96 96 W 17 28 29.75 1007 1.5 2.41401 0 0.0254
5:15 pm 17:15 Cloudy with Mist and Fog 61 16 61 16 100 100 W 18 30 29.74 1007 2 3.21868 0 0
5:33 pm 17:33 Cloudy with Mist and Fog 61 16 59 15 94 94 W 16 26 29.74 1007 3 4.82802 0 0
5:56 pm 17:56 Cloudy with Mist and Fog 60 15.5 59 15 97 97 WNW 18 30 29.77 1008 2 3.21868 0 0
6:01 pm 18:01 Cloudy with Mist and Fog 61 16 59 15 94 94 WNW 16 26 29.74 1007 3 4.82802 0 0
6:36 pm 18:36 Cloudy 61 16 57 14 88 88 WNW 20 31 29.77 1008 8 12.87472 0 0
6:56 pm 18:56 Cloudy 61 16.1 58 14.4 90 90 WNW 16 26 29.77 1008 8 12.87472 0 0
7:29 pm 19:29 Cloudy with Mist and Fog 61 16 57 14 88 88 W 18 30 29.77 1008 3 4.82802 0 0
7:56 pm 19:56 Cloudy with Mist and Fog 59 15 58 14.4 96 96 WNW 15 24 29.79 1009 5 8.0467 0 0
8:09 pm 20:09 Cloudy with Mist and Fog 59 15 57 14 94 94 WNW 16 26 29.8 1009 6 9.65604 0 0
8:56 pm 20:56 Cloudy with Mist and Fog 59 15 58 14.4 96 96 WNW 14 22 29.8 1009 3 4.82802 0 0
9:56 pm 21:56 Cloudy 61 16.1 56 13.3 84 84 WNW 12 19 29.81 1009 10 16.0934 0 0
10:48 pm 22:48 Cloudy 61 16 55 13 83 83 WNW 22 35 29.8 1009 10 16.0934 0 0
10:56 pm 22:56 Cloudy 60 15.5 56 13.3 87 87 WNW 13 20 29.83 1010 9 14.48406 0 0
11:31 pm 23:31 Cloudy 61 16 55 13 83 83 WNW 16 26 29.83 1010 9 14.48406 0 0
11:56 pm 23:56 Cloudy 60 15.5 55 12.7 84 84 WNW 17 28 29.85 1011 9 14.48406 0 0

Powered by AerisWeather